sat.trackr.live / text

‹ back to catalog

ONEWEB-0523

NORAD 54141 · 2022-138AE

PAYLOAD ACTIVE UNKNOWN

§ Identity

Operator
Country
UK
Launch date
2022-10-22
Launch site
SRILR
Launch vehicle
Mass (kg)
RCS (m²)

Purposes: comms

External: N2YO · Heavens-Above · Gunter

§ Orbital elements

Epoch: 2026-05-25T01:47:59.949888Z

Period
109.03 min
Inclination
87.9177°
Eccentricity
0.0002464
Mean motion
13.20772367 rev/d
Perigee alt
1,179.9 km
Apogee alt
1,183.6 km
Semi-major
7,559.9 km
B*
3.7071e-5
RAAN
279.0482°
Arg perigee
114.8682°
Mean anomaly
245.2708°
Rev number
17,625

§ Raw data

ONEWEB-05231 54141U 22138AE  26145.07499942  .00000028  00000+0  37071-4 0  99942 54141  87.9177 279.0482 0002464 114.8682 245.2708 13.20772367176251

JSON: /api/v1/satellites/54141 · /tle

For live sub-satellite position, see the globe view (requires WebGL).

§ Visibility from observer

Set your observer location to see the next 7 days of passes ≥ 10°. The values pass through the URL so the page stays shareable.

No JS? Fill the form by hand. The geolocation button needs JavaScript.